This demonstration page uses our WeatherBlox Daily Observations layout. Learn more.

Left ArrowRight Arrow

Hourly Observations for March 5, 2020

Temp ( °F °C ) Dew Point ( °F °C ) Humidity (%) Winds ( mph kmh ) Pressure ( in mb ) Visibility ( mi km ) Precip ( " mm )
12:54 am 00:54 Clear 52 11.1 22 -5.6 31 31 WSW 23 37 29.88 1012 10 16.0934 0 0
1:54 am 01:54 Clear 50 10 29 -1.7 44 44 NW 15 24 29.96 1015 10 16.0934 0 0
2:54 am 02:54 Clear 48 8.9 34 1.1 58 58 NNW 13 20 30.01 1016 10 16.0934 0 0
3:54 am 03:54 Clear 46 7.8 34 1.1 63 63 NW 13 20 30.05 1018 10 16.0934 0 0
4:54 am 04:54 Mostly Cloudy 44 6.7 32 0 63 63 NW 13 20 30.09 1019 10 16.0934 0 0
5:54 am 05:54 Clear 42 5.6 29 -1.7 60 60 WNW 10 17 30.14 1021 10 16.0934 0 0
6:54 am 06:54 Sunny 41 5 27 -2.8 57 57 WNW 9 15 30.18 1022 10 16.0934 0 0
7:54 am 07:54 Sunny 42 5.6 25 -3.9 51 51 WNW 14 22 30.21 1023 10 16.0934 0 0
8:54 am 08:54 Sunny 46 7.8 24 -4.4 42 42 NW 23 37 30.22 1024 10 16.0934 0 0
9:54 am 09:54 Sunny 49 9.4 20 -6.7 32 32 NW 25 41 30.23 1024 10 16.0934 0 0
10:54 am 10:54 Sunny 51 10.6 17 -8.3 26 26 NW 30 48 30.24 1024 10 16.0934 0 0
11:54 am 11:54 Sunny 53 11.7 14 -10 21 21 NW 30 48 30.25 1025 10 16.0934 0 0
12:54 pm 12:54 Sunny 53 11.7 15 -9.4 22 22 NW 33 54 30.25 1024 10 16.0934 0 0
1:54 pm 13:54 Sunny 54 12.2 16 -8.9 22 22 NW 35 56 30.26 1025 10 16.0934 0 0
2:54 pm 14:54 Sunny 54 12.2 19 -7.2 25 25 NNW 31 50 30.28 1025 10 16.0934 0 0
3:54 pm 15:54 Sunny 53 11.7 20 -6.7 27 27 NNW 26 43 30.31 1026 10 16.0934 0 0
4:54 pm 16:54 Mostly Sunny 51 10.6 21 -6.1 31 31 NW 26 43 30.33 1027 10 16.0934 0 0
5:54 pm 17:54 Mostly Sunny 49 9.4 22 -5.6 35 35 NNW 17 28 30.37 1028 10 16.0934 0 0
6:54 pm 18:54 Clear 45 7.2 23 -5 42 42 NNW 16 26 30.4 1030 10 16.0934 0 0
7:54 pm 19:54 Clear 42 5.6 23 -5 47 47 NNW 10 17 30.44 1031 10 16.0934 0 0
8:54 pm 20:54 Clear 40 4.4 23 -5 51 51 NNW 12 19 30.45 1031 10 16.0934 0 0
9:54 pm 21:54 Clear 34 1.1 22 -5.6 61 61 NNW 8 13 30.48 1032 10 16.0934 0 0
10:54 pm 22:54 Clear 35 1.7 23 -5 61 61 NW 7 11 30.49 1032 10 16.0934 0 0
11:54 pm 23:54 Clear 34 1.1 24 -4.4 67 67 NNW 6 9 30.5 1033 10 16.0934 0 0

Powered by AerisWeather